| time (UTC) | temp F | wind direction | speed knots | gust knots | rain 1hr in | rain 24hr in | rain mn in | humidity % | barometer mb |
| 20260902161526 | 65 | 302 | 0.9 | 6.1 | 0.00 | 0.00 | 0.00 | 51 | 1007.4 |
| 20260902160024 | 65 | 229 | 2.6 | 5.2 | 0.00 | 0.00 | 0.00 | 51 | 1007.5 |
| 20260902154526 | 64 | 269 | 5.2 | 8.7 | 0.00 | 0.00 | 0.00 | 52 | 1007.8 |
| 20260902153023 | 63 | 210 | 2.6 | 6.1 | 0.00 | 0.00 | 0.00 | 54 | 1008.0 |
| 20260902151518 | 60 | 156 | 0.9 | 1.7 | 0.00 | 0.00 | 0.00 | 62 | 1008.2 |
| 20260902150018 | 56 | 157 | 0.0 | 0.0 | 0.00 | 0.00 | 0.00 | 66 | 1008.3 |
| 20260902144520 | 55 | 157 | 0.0 | 1.7 | 0.00 | 0.00 | 0.00 | 67 | 1008.5 |
| 20260902143017 | 54 | 186 | 3.5 | 5.2 | 0.00 | 0.00 | 0.00 | 69 | 1008.5 |
| 20260902141516 | 55 | 148 | 1.7 | 3.5 | 0.00 | 0.00 | 0.00 | 68 | 1008.4 |
| 20260902140013 | 54 | 141 | 1.7 | 2.6 | 0.00 | 0.00 | 0.00 | 68 | 1008.5 |
| 20260902134513 | 55 | 193 | 0.0 | 3.5 | 0.00 | 0.00 | 0.00 | 68 | 1008.5 |
| 20260902133012 | 56 | 186 | 1.7 | 2.6 | 0.00 | 0.00 | 0.00 | 66 | 1008.5 |
| 20260902131511 | 56 | 169 | 2.6 | 4.3 | 0.00 | 0.00 | 0.00 | 67 | 1008.5 |
| 20260902130010 | 55 | 165 | 2.6 | 3.5 | 0.00 | 0.00 | 0.00 | 69 | 1008.2 |
| 20260902124509 | 55 | 233 | 0.9 | 2.6 | 0.00 | 0.00 | 0.00 | 68 | 1008.2 |
| 20260902123009 | 55 | 238 | 0.9 | 4.3 | 0.00 | 0.00 | 0.00 | 68 | 1008.2 |
| 20260902121506 | 55 | 203 | 3.5 | 5.2 | 0.00 | 0.00 | 0.00 | 69 | 1008.1 |
| 20260902120007 | 56 | 140 | 1.7 | 2.6 | 0.00 | 0.00 | 0.00 | 67 | 1007.7 |
| 20260902114501 | 57 | 158 | 0.0 | 1.7 | 0.00 | 0.00 | 0.00 | 66 | 1007.6 |
| 20260902113004 | 58 | 158 | 0.0 | 2.6 | 0.00 | 0.00 | 0.00 | 65 | 1007.7 |
| 20260902111606 | 58 | 158 | 0.9 | 2.6 | 0.00 | 0.00 | 0.00 | 66 | 1008.1 |
| 20260902110059 | 58 | 158 | 0.0 | 1.7 | 0.00 | 0.00 | 0.00 | 66 | 1008.4 |
| 20260902104558 | 59 | 153 | 1.7 | 4.3 | 0.00 | 0.00 | 0.00 | 66 | 1008.7 |
| 20260902103056 | 58 | 159 | 3.5 | 6.1 | 0.00 | 0.00 | 0.00 | 66 | 1008.5 |
| 20260902101555 | 57 | 146 | 2.6 | 4.3 | 0.00 | 0.00 | 0.00 | 67 | 1008.2 |
| 20260902100104 | 56 | 149 | 4.3 | 5.2 | 0.00 | 0.00 | 0.00 | 67 | 1008.1 |
| 20260902094551 | 57 | 153 | 0.9 | 3.5 | 0.00 | 0.00 | 0.00 | 66 | 1007.9 |
| 20260902093048 | 58 | 127 | 1.7 | 5.2 | 0.00 | 0.00 | 0.00 | 64 | 1008.0 |
| 20260902091550 | 60 | 176 | 0.0 | 5.2 | 0.00 | 0.00 | 0.00 | 62 | 1008.0 |
| 20260902090043 | 61 | 210 | 1.7 | 7.8 | 0.00 | 0.00 | 0.00 | 61 | 1008.3 |
| 20260902084539 | 61 | 236 | 3.5 | 7.0 | 0.00 | 0.00 | 0.00 | 60 | 1008.4 |
| 20260902083038 | 62 | 207 | 2.6 | 10.4 | 0.00 | 0.00 | 0.00 | 59 | 1007.9 |
| 20260902081538 | 62 | 203 | 6.1 | 11.3 | 0.00 | 0.00 | 0.00 | 59 | 1008.4 |
| 20260902080035 | 62 | 199 | 3.5 | 10.4 | 0.00 | 0.00 | 0.00 | 58 | 1008.3 |
| 20260902074538 | 62 | 202 | 5.2 | 9.6 | 0.00 | 0.00 | 0.00 | 57 | 1008.4 |
| 20260902073032 | 62 | 233 | 6.1 | 13.9 | 0.00 | 0.00 | 0.00 | 57 | 1008.0 |
| 20260902071526 | 63 | 203 | 6.1 | 13.9 | 0.00 | 0.00 | 0.00 | 56 | 1008.1 |
| 20260902070023 | 63 | 221 | 7.0 | 13.0 | 0.00 | 0.00 | 0.00 | 55 | 1007.9 |
| 20260902064522 | 63 | 221 | 4.3 | 10.4 | 0.00 | 0.00 | 0.00 | 55 | 1007.7 |
| 20260902063033 | 64 | 195 | 6.1 | 13.0 | 0.00 | 0.00 | 0.00 | 54 | 1007.4 |
| 20260902061523 | 64 | 203 | 4.3 | 13.9 | 0.00 | 0.00 | 0.00 | 53 | 1007.4 |
| 20260902060018 | 63 | 200 | 4.3 | 7.0 | 0.00 | 0.00 | 0.00 | 53 | 1007.4 |
| 20260902054524 | 64 | 207 | 1.7 | 8.7 | 0.00 | 0.00 | 0.00 | 50 | 1007.4 |
| 20260902053016 | 66 | 232 | 7.8 | 14.8 | 0.00 | 0.00 | 0.00 | 48 | 1007.1 |
| 20260902051515 | 66 | 229 | 6.1 | 12.2 | 0.00 | 0.00 | 0.00 | 48 | 1007.1 |
| 20260902050043 | 67 | 210 | 7.8 | 14.8 | 0.00 | 0.00 | 0.00 | 45 | 1006.9 |
| 20260902044513 | 68 | 221 | 5.2 | 12.2 | 0.00 | 0.00 | 0.00 | 44 | 1006.7 |
| 20260902043027 | 68 | 219 | 4.3 | 15.6 | 0.00 | 0.00 | 0.00 | 43 | 1006.5 |
| 20260902041513 | 68 | 200 | 6.1 | 9.6 | 0.00 | 0.00 | 0.00 | 42 | 1006.2 |
| 20260902040012 | 67 | 156 | 2.6 | 4.3 | 0.00 | 0.00 | 0.00 | 42 | 1005.8 |
| 20260902034511 | 68 | 147 | 2.6 | 5.2 | 0.00 | 0.00 | 0.00 | 42 | 1005.4 |
| 20260902033010 | 69 | 142 | 2.6 | 6.1 | 0.00 | 0.00 | 0.00 | 40 | 1005.2 |
| 20260902031509 | 70 | 247 | 2.6 | 7.0 | 0.00 | 0.00 | 0.00 | 40 | 1004.7 |
| 20260902030009 | 71 | 255 | 4.3 | 7.0 | 0.00 | 0.00 | 0.00 | 38 | 1004.5 |
| 20260902024508 | 72 | 243 | 5.2 | 7.8 | 0.00 | 0.00 | 0.00 | 36 | 1004.2 |
| 20260902023008 | 74 | 272 | 5.2 | 9.6 | 0.00 | 0.00 | 0.00 | 34 | 1004.0 |
| 20260902021507 | 75 | 270 | 4.3 | 8.7 | 0.00 | 0.00 | 0.00 | 35 | 1003.8 |
| 20260902020007 | 76 | 280 | 4.3 | 7.0 | 0.00 | 0.00 | 0.00 | 34 | 1003.8 |
| 20260902014506 | 77 | 296 | 1.7 | 2.6 | 0.00 | 0.00 | 0.00 | 34 | 1003.8 |
| 20260902013005 | 78 | 314 | 1.7 | 3.5 | 0.00 | 0.00 | 0.00 | 34 | 1003.6 |
| 20260902011504 | 78 | 320 | 0.9 | 4.3 | 0.00 | 0.00 | 0.00 | 34 | 1003.6 |
| 20260902010006 | 79 | 315 | 1.7 | 4.3 | 0.00 | 0.00 | 0.00 | 34 | 1003.6 |
| 20260902004503 | 79 | 291 | 2.6 | 5.2 | 0.00 | 0.00 | 0.00 | 33 | 1003.6 |
| 20260902003004 | 79 | 326 | 2.6 | 7.0 | 0.00 | 0.00 | 0.00 | 33 | 1003.4 |
| 20260902001501 | 80 | 288 | 3.5 | 6.1 | 0.00 | 0.00 | 0.00 | 32 | 1003.5 |
| 20260902000104 | 80 | 293 | 2.6 | 7.0 | 0.00 | 0.00 | 0.00 | 32 | 1003.5 |
| 20260901234600 | 80 | 299 | 1.7 | 6.1 | 0.00 | 0.00 | 0.00 | 32 | 1003.5 |
| 20260901233059 | 80 | 307 | 0.9 | 7.0 | 0.00 | 0.00 | 0.00 | 32 | 1003.5 |
| 20260901231557 | 80 | 333 | 5.2 | 8.7 | 0.00 | 0.00 | 0.00 | 33 | 1003.6 |
| 20260901230104 | 80 | 345 | 1.7 | 8.7 | 0.00 | 0.00 | 0.00 | 32 | 1003.8 |
| 20260901224554 | 80 | 288 | 3.5 | 10.4 | 0.00 | 0.00 | 0.00 | 33 | 1003.8 |
| 20260901223103 | 79 | 343 | 2.6 | 11.3 | 0.00 | 0.00 | 0.00 | 33 | 1004.0 |
| 20260901221547 | 78 | 255 | 3.5 | 7.8 | 0.00 | 0.00 | 0.00 | 35 | 1004.2 |
| 20260901220105 | 78 | 333 | 3.5 | 6.1 | 0.00 | 0.00 | 0.00 | 36 | 1004.3 |
| 20260901214543 | 77 | 307 | 4.3 | 7.8 | 0.00 | 0.00 | 0.00 | 37 | 1004.4 |
| 20260901213046 | 77 | 39 | 0.0 | 4.3 | 0.00 | 0.00 | 0.00 | 38 | 1004.6 |
| 20260901211539 | 77 | 244 | 0.0 | 3.5 | 0.00 | 0.00 | 0.00 | 38 | 1004.7 |
| 20260901210038 | 76 | 301 | 1.7 | 5.2 | 0.00 | 0.00 | 0.00 | 39 | 1004.7 |
| 20260901204539 | 76 | 250 | 2.6 | 5.2 | 0.00 | 0.00 | 0.00 | 39 | 1005.2 |
| 20260901203037 | 75 | 207 | 4.3 | 7.0 | 0.00 | 0.00 | 0.00 | 37 | 1005.4 |
| 20260901201530 | 74 | 242 | 2.6 | 8.7 | 0.00 | 0.00 | 0.00 | 38 | 1005.5 |
| 20260901200029 | 74 | 292 | 3.5 | 6.1 | 0.00 | 0.00 | 0.00 | 38 | 1005.6 |
| 20260901194525 | 72 | 312 | 0.0 | 7.8 | 0.00 | 0.00 | 0.00 | 44 | 1005.9 |
| 20260901193030 | 71 | 262 | 7.8 | 13.0 | 0.00 | 0.00 | 0.00 | 45 | 1006.0 |
| 20260901191522 | 71 | 294 | 7.0 | 8.7 | 0.00 | 0.00 | 0.00 | 40 | 1005.7 |
| 20260901190019 | 70 | 293 | 4.3 | 13.9 | 0.00 | 0.00 | 0.00 | 40 | 1005.5 |
| 20260901184532 | 70 | 6 | 1.7 | 6.1 | 0.00 | 0.00 | 0.00 | 41 | 1006.3 |
| 20260901183018 | 70 | 319 | 4.3 | 7.0 | 0.00 | 0.00 | 0.00 | 39 | 1006.1 |
| 20260901181521 | 70 | 322 | 2.6 | 4.3 | 0.00 | 0.00 | 0.00 | 39 | 1006.5 |
| 20260901180015 | 69 | 1 | 1.7 | 4.3 | 0.00 | 0.00 | 0.00 | 38 | 1006.6 |
| 20260901174534 | 69 | 46 | 3.5 | 7.0 | 0.00 | 0.00 | 0.00 | 39 | 1006.0 |
| 20260901173008 | 67 | 79 | 2.6 | 4.3 | 0.00 | 0.00 | 0.00 | 40 | 1006.2 |
| 20260901171505 | 67 | 41 | 0.0 | 4.3 | 0.00 | 0.00 | 0.00 | 42 | 1006.6 |
| 20260901170003 | 66 | 46 | 0.0 | 1.7 | 0.00 | 0.00 | 0.00 | 41 | 1006.9 |
| 20260901164503 | 65 | 338 | 0.9 | 2.6 | 0.00 | 0.00 | 0.00 | 42 | 1006.5 |
| 20260901163101 | 65 | 249 | 2.6 | 5.2 | 0.00 | 0.00 | 0.00 | 45 | 1006.5 |